{"data":{"norad_id":62157,"epoch":"2026-09-21T09:18:50.486976Z","epoch_age_seconds":105016,"freshness":"FRESH","line1":"1 62157U 24224U   26264.38808434  .00017511  00000+0  64375-3 0  9995","line2":"2 62157  43.0037 140.3273 0002213 263.8262  96.2337 15.27610962101895","mean_motion":15.27610962,"eccentricity":0.0002213,"inclination_deg":43.0037,"raan_deg":140.3273,"arg_perigee_deg":263.8262,"mean_anomaly_deg":96.2337,"bstar":0.00064375,"rev_number":10189,"period_min":94.264838091676,"perigee_km":481.43802627267,"apogee_km":484.47474620542,"semimajor_km":6861.093386239,"source":"CELESTRAK","updated_at":"2026-09-22T09:00:49.533052Z"}}